Pottstown, PA

3:22 PM EST on December 15, 2017 (GMT -0500)
Pottstown Limerick

Weather History for KPTW - January, 2013

Change the Weather History Date:

Saturday, January 5, 2013

  Actual Average (KRDG) Record (KRDG)
Temperature  
Mean Temperature 32 °F -  
Max Temperature 39 °F 37 °F 64 °F (1950)
Min Temperature 26 °F 24 °F -6 °F (1904)
Degree Days  
Heating Degree Days 32    
Moisture  
Dew Point 21 °F    
Average Humidity 63    
Maximum Humidity 81    
Minimum Humidity 49    
Precipitation  
Precipitation 0.00 in - - ()
Sea Level Pressure  
Sea Level Pressure 30.25 in    
Wind  
Wind Speed 6 mph (WNW)    
Max Wind Speed 12 mph    
Max Gust Speed 21 mph    
Visibility 10 miles    
Events      
Averages and records for this station are not official NWS values.
T = Trace of Precipitation, MM = Missing Value Source: NWS Daily Summary

Daily Weather History Graph

Daily Weather History Graph

Search for Another Location

Airport or City:

Trip Planner

Search our weather history database for the weather conditions in past years. The results will help you decide how hot, cold, wet, or windy it might be!

Date:

Astronomy

Jan. 05, 2013 Rise Set
Actual Time 7:25 AM EST 4:50 PM EST
Civil Twilight 6:54 AM EST 5:21 PM EST
Nautical Twilight 6:20 AM EST 5:55 PM EST
Astronomical Twilight 5:47 AM EST 6:28 PM EST
Moon 12:28 AM EST (1/5) 11:39 AM EST (1/5)
Length of Visible Light 10h 26m
Length of Day
9h 25m
Last Quarter, 44% of the Moon is Illuminated
Jan 5
Last Quarter
Jan 11
New
Jan 18
First Quarter
Jan 26
Full
Feb 3
Last Quarter

Hourly Weather History & Observations

Time (EST) Temp. Windchill Dew Point Humidity Pressure Visibility Wind Dir Wind Speed Gust Speed Precip Events Conditions
12:54 AM 32.0 °F 25.6 °F 19.0 °F 59% 30.09 in 10.0 mi West 6.9 mph - N/A   Clear
2:54 AM 32.0 °F 24.8 °F 19.0 °F 59% 30.13 in 10.0 mi NW 8.1 mph - N/A   Clear
3:54 AM 30.0 °F 23.2 °F 19.0 °F 64% 30.17 in 10.0 mi WNW 6.9 mph - N/A   Clear
4:54 AM 30.9 °F 22.8 °F 19.0 °F 61% 30.20 in 10.0 mi WNW 9.2 mph - N/A   Clear
5:54 AM 30.0 °F 23.2 °F 19.0 °F 64% 30.23 in 10.0 mi NW 6.9 mph - N/A   Clear
6:54 AM 30.0 °F 21.1 °F 19.0 °F 64% 30.27 in 10.0 mi WNW 10.4 mph - N/A   Clear
7:54 AM 30.0 °F 23.2 °F 19.0 °F 64% 30.29 in 10.0 mi West 6.9 mph - N/A   Clear
8:54 AM 32.0 °F 27.5 °F 19.9 °F 61% 30.30 in 10.0 mi West 4.6 mph - N/A   Clear
9:54 AM 35.1 °F 27.4 °F 21.0 °F 57% 30.32 in 10.0 mi WNW 10.4 mph 17.3 mph N/A   Clear
10:54 AM 36.0 °F 28.0 °F 21.9 °F 57% 30.34 in 10.0 mi WNW 11.5 mph 20.7 mph N/A   Partly Cloudy
11:54 AM 39.0 °F 31.8 °F 21.9 °F 50% 30.32 in 10.0 mi NW 11.5 mph - N/A   Clear
12:54 PM 39.9 °F 37.8 °F 21.9 °F 49% 30.29 in 10.0 mi Variable 3.5 mph - N/A   Clear
1:54 PM 37.9 °F 33.5 °F 21.0 °F 51% 30.28 in 10.0 mi West 5.8 mph - N/A   Clear
2:54 PM 39.0 °F 33.4 °F 21.0 °F 49% 30.27 in 10.0 mi West 8.1 mph - N/A   Clear
3:54 PM 37.9 °F 34.4 °F 21.9 °F 53% 30.28 in 10.0 mi West 4.6 mph - N/A   Clear
4:54 PM 34.0 °F - 21.9 °F 61% 30.29 in 10.0 mi Calm Calm - N/A   Clear
6:54 PM 32.0 °F - 21.9 °F 66% 30.29 in 10.0 mi Calm Calm - N/A   Clear
7:54 PM 28.0 °F - 21.0 °F 75% 30.27 in 10.0 mi Calm Calm - N/A   Clear
8:54 PM 26.1 °F - 21.0 °F 81% 30.27 in 9.0 mi Calm Calm - N/A   Clear
9:54 PM 28.0 °F - 23.0 °F 81% 30.24 in 10.0 mi Calm Calm - N/A   Clear
10:54 PM 30.0 °F - 24.1 °F 79% 30.22 in 9.0 mi Calm Calm - N/A   Partly Cloudy
11:54 PM 30.9 °F - 24.1 °F 76% 30.23 in 10.0 mi Calm Calm - N/A   Mostly Cloudy